Location: Estación de San Marcos
(39.9094°N, 5.4035°W)
Time: 10:54:04
(UTC+00:00)

Daily predictions for brighter satellites

Satellite Brightness Start Highest point End
(mag) Time Altitude Azimuth Time Altitude Azimuth Time Altitude Azimuth
Okean 2 Rocket 4.1 20:13:11 10° NNW 20:17:31 49° W 20:21:47 10° SSW
Cosmos 1328 4.5 20:13:54 10° SSW 20:17:38 56° W 20:21:22 10° N
Okean O Rocket 1.6 20:18:50 10° SSE 20:23:06 67° ENE 20:27:24 10° N
Meteor 1-21 Rocket 4.2 20:17:39 10° S 20:23:11 81° E 20:28:44 10° NNE
NOSS 3-1 (A) 4.5 20:21:50 10° SE 20:24:26 15° ESE 20:27:13 10° ENE
Resurs 01 Rocket 1.9 20:23:05 10° S 20:27:27 71° W 20:31:51 10° NNW
CSL-04 Debris 4.3 20:23:12 10° S 20:28:34 80° WSW 20:33:58 10° NNW
Cosmos 2150 Rocket 4.4 20:27:03 10° S 20:32:07 43° ESE 20:37:15 10° NNE
DELTA 2 DEB (DPAF) 3.9 20:29:04 10° NNE 20:33:16 74° ESE 20:37:25 10° S
CZ-4C R/B 4.2 20:30:59 10° NE 20:33:54 24° E 20:36:36 11° SSE
Cosmos 2184 Rocket 4.2 20:28:42 10° S 20:35:03 83° W 20:41:23 10° N
ERS-1 Rocket 4.2 20:31:45 10° ESE 20:35:45 26° ENE 20:39:51 10° NNE
ARGOS Delta rocket 3.9 20:40:16 10° S 20:45:02 88° WSW 20:50:07 10° N
Cosmos 1437 Rocket 3.4 20:47:11 15° SSE 20:49:36 30° E 20:52:49 10° NNE
Meteor 1-11 4.2 20:44:05 10° S 20:49:46 74° E 20:55:25 10° NNE
Cosmos 1025 Rocket 4.5 20:46:46 10° SSW 20:50:43 39° WNW 20:54:44 10° N
CZ-4 R/B 4.0 20:48:35 10° SW 20:51:24 18° W 20:54:13 10° NW
PSLV R/B 4.0 20:48:55 10° S 20:52:25 61° W 20:56:00 10° NNW
Cosmos 1610 Rocket 4.5 20:47:17 10° S 20:53:32 88° E 20:59:45 10° N
Cosmos 1544 Rocket 4.3 20:49:40 10° N 20:53:37 34° ENE 20:56:12 18° SE
Cosmos 2341 Rocket 4.4 20:50:45 10° SSE 20:56:40 46° E 21:02:40 10° NNE
ATLAS 3B R/B 3.4 20:52:00 10° S 20:58:04 33° ESE 21:04:32 10° NE
In-Cosmos 22 Rocket 4.5 20:52:37 10° SSW 20:58:18 73° W 21:03:53 10° N
Okean-O 2.6 20:56:03 11° SSE 21:00:14 87° WSW 21:04:40 10° NNW
ATLAS CENTAUR R/B 3.1 20:59:23 10° NW 21:02:52 27° WSW 21:06:25 10° S
BREEZE-M DEB (TANK) 4.1 21:07:49 10° NW 21:10:50 50° NNE 21:17:26 14° ESE
MetOp-B 4.1 21:07:34 15° SSE 21:12:06 88° ENE 21:17:30 10° NNW
Cosmos 1455 Rocket 4.0 21:08:47 10° NNW 21:12:57 45° W 21:17:04 10° SSW
OAO 3 Rocket 3.8 21:09:41 10° SW 21:13:44 31° SSE 21:15:14 25° SE
Cosmos 1975 Rocket 4.1 21:10:29 10° SSW 21:14:46 47° W 21:19:05 10° N
USA 276 3.6 21:12:30 10° W 21:14:55 23° SW 21:15:51 20° SSW
USA 215 3.7 21:10:36 15° ESE 21:15:51 53° NE 21:22:12 10° NW
Cosmos 1833 Rocket 2.7 21:12:02 10° NNW 21:17:42 84° ENE 21:21:24 23° SSE
Cosmos 2228 3.2 21:15:57 10° N 21:20:02 51° E 21:21:48 30° SE
Ariane Rocket 3.5 21:19:09 25° SE 21:21:44 45° ENE 21:26:33 10° N
CZ-4C R/B 4.5 21:21:02 10° NNW 21:26:37 24° NE 21:33:03 10° E
H-2A R/B 2.7 21:24:38 10° SW 21:27:46 22° S 21:27:46 22° S
NOSS 3-1 (C) 3.6 21:28:14 10° SW 21:32:55 57° NW 21:38:27 10° NNE
Cosmos 2366 rocket 3.9 21:30:08 16° S 21:35:06 75° E 21:41:14 10° N
Cosmos 1606 3.7 21:33:17 10° NNW 21:36:36 39° W 21:38:38 20° SSW
USA 290 2.0 21:37:28 46° SSW 21:38:19 89° SE 21:41:29 10° NNE
SPOT 5 3.8 21:34:25 15° S 21:38:26 48° W 21:43:28 10° NNW
Terra 1.7 21:38:18 30° SSE 21:40:37 88° WSW 21:45:23 10° NNW
MOS 1 Rocket 3.1 21:38:53 31° S 21:41:04 84° W 21:45:27 10° NNW
SL-8 Rocket 4.0 21:35:10 12° S 21:41:08 85° W 21:47:30 10° N
Cosmos 1869 4.3 21:37:56 10° NNW 21:41:34 40° W 21:43:53 19° SSW
Geosat 4.4 21:37:58 10° NE 21:42:39 39° ESE 21:43:33 35° SE
Cosmos 2082 Rocket 3.0 21:39:05 10° N 21:44:19 38° ENE 21:46:29 28° ESE
Cosmos 1959 Rocket 4.4 21:40:05 18° S 21:44:55 82° E 21:51:14 10° N
Cosmos 1536 Rocket 3.5 21:43:59 28° S 21:46:12 85° W 21:50:32 10° N
Cosmos 2278 Rocket 2.4 21:40:50 10° SSW 21:46:29 74° WNW 21:52:10 10° NNE
SL-23 DEB 4.5 21:42:31 10° NW 21:46:36 81° NE 21:49:29 32° ESE
Landsat 5 4.0 21:45:53 10° NNE 21:50:00 40° E 21:50:07 39° ESE
Milstar 3 4.0 21:44:25 10° SW 21:50:55 31° SSE 22:00:45 10° E
ISS -1.8 21:50:18 10° NNW 21:53:01 23° NNE 21:54:01 20° NE
Helios 1B 4.4 21:48:49 10° NNE 21:53:08 85° ESE 21:54:44 38° S
Cosmos 1943 Rocket 2.1 21:49:47 15° SSW 21:54:32 82° ESE 22:00:11 10° NNE
Cosmos 1269 Rocket 4.2 21:52:40 10° N 21:57:54 57° ENE 21:59:25 42° ESE
USA 305 4.3 21:58:05 10° NNW 22:00:50 20° NNE 22:01:39 19° NE
Meteor 1-27 4.3 21:59:23 10° NNW 22:04:59 73° W 22:07:23 35° S
Cosmos 1140 Rocket 4.5 22:03:50 10° N 22:08:24 31° ENE 22:09:25 29° E
Landsat 4 3.6 22:12:12 71° NNW 22:12:12 71° NNW 22:15:17 10° NNW
ULPM Upper Stage 3.0 22:09:57 10° NNW 22:14:16 56° NE 22:14:41 53° ENE
NOSS 3-1 (A) 3.4 22:09:34 10° SW 22:14:18 60° NW 22:19:54 10° NNE
ERS-1 Rocket 4.2 22:11:41 21° SSW 22:14:18 35° W 22:18:52 10° NNW
USA 307 4.3 22:21:38 10° NNW 22:24:48 24° NNE 22:25:22 23° NE
SL-8 R/B 3.8 22:20:05 10° WSW 22:24:52 76° NNW 22:29:41 10° ENE
Cosmos 1934 Rocket 4.3 22:27:33 43° ESE 22:28:24 46° E 22:34:16 10° NNE
COSMOS 2406 3.1 22:26:38 10° NNW 22:32:20 74° ENE 22:33:20 59° SE
ARIANE 5 R/B 3.7 22:33:04 34° ENE 22:33:04 34° ENE 22:36:56 10° N
SPOT 3 Rocket 4.5 22:31:23 31° SW 22:33:08 41° W 22:38:03 10° NNW
Cosmos 2084 Rocket 4.2 22:35:01 10° NW 22:38:05 40° W 22:38:05 40° W
USA 229 DEB 3.3 22:42:43 59° SSE 22:43:40 69° ESE 22:50:11 10° NE
USA 229 3.3 22:42:53 60° SSE 22:43:47 68° ESE 22:50:16 10° NE
Cosmos 1892 Rocket 3.7 22:44:34 70° W 22:44:36 70° W 22:49:02 10° N
Cosmos 1656 Rocket 3.9 22:45:29 52° E 22:45:29 52° E 22:50:24 10° NNE
Cosmos 1812 3.7 22:41:57 10° N 22:44:24 42° NNW 22:44:24 42° NNW
Cosmos 2251 Rocket 4.3 22:41:19 10° N 22:46:19 39° ENE 22:46:43 38° ENE
Cosmos 1238 Rocket 4.1 22:44:01 10° N 22:46:48 34° NE 22:46:48 34° NE
ATLAS 3B R/B 3.5 22:41:34 10° SW 22:48:28 53° NW 22:55:55 10° NNE
Gblst 52 Del rocket 4.1 22:43:27 10° SW 22:49:19 81° NW 22:54:50 10° NE
MetOp-A 4.1 22:53:58 51° W 22:53:58 51° W 22:57:54 10° NNW
USA 215 3.6 22:57:56 43° SSW 22:58:52 46° SW 23:05:08 10° WNW
Cosmos 1932 4.4 22:54:35 10° NW 23:00:45 69° WSW 23:01:29 63° SSW
SeaSat 1 4.4 23:00:05 16° ENE 23:01:25 18° NE 23:04:40 10° N
Cosmos 1726 Rocket 4.5 22:59:29 10° NNW 23:03:14 40° W 23:03:14 40° W
Lacrosse 4 Rocket 3.4 23:08:58 20° NE 23:08:58 20° NE 23:10:20 10° NE
Cosmos 2297 3.6 23:06:47 78° ESE 23:06:47 78° ESE 23:12:30 10° NNE
Cosmos 1535 Rocket 4.3 23:11:43 70° ESE 23:12:03 72° E 23:18:13 10° N
Gbstr 26 Del rocket 4.2 23:07:38 10° NW 23:12:34 53° NNE 23:13:51 44° ENE
Meteor 2-3 Rocket 3.9 23:13:44 59° E 23:13:44 59° E 23:19:00 10° NNE
H-2A R/B 4.0 23:15:57 27° NNE 23:15:57 27° NNE 23:18:06 10° N
Alouette 2 Rocket 4.2 23:14:30 58° W 23:14:35 58° WNW 23:20:22 10° N
CZ-4C R/B 3.0 23:08:32 10° NNW 23:16:03 82° NE 23:18:25 53° SE
Cosmos 1605 Rocket 3.9 23:17:31 67° ESE 23:17:40 67° E 23:23:46 10° NNE
CZ-2C R/B 4.2 23:14:49 10° N 23:19:19 56° WNW 23:19:19 56° WNW
Cosmos 1271 Rocket 4.4 23:22:49 31° N 23:22:49 31° N 23:24:54 10° N
Cosmos 1241 Rocket 4.5 23:16:23 10° NW 23:22:47 67° WSW 23:23:15 65° SW
Cosmos 2369 Rocket 2.1 23:28:19 82° NNE 23:28:19 82° NNE 23:33:42 10° NNE
Cosmos 2082 Rocket 3.4 23:23:27 10° NW 23:28:11 29° WSW 23:28:19 28° WSW
ISS -0.6 23:26:42 10° WNW 23:26:53 11° WNW 23:26:53 11° WNW
Spot 4 4.2 23:39:04 62° N 23:39:04 62° N 23:43:07 10° NNW
Cosmos 407 Rocket 4.0 23:35:25 10° NNW 23:39:51 54° WNW 23:39:51 54° WNW
Meteor 2-2 Rocket 4.2 23:35:30 10° N 23:41:14 87° NW 23:41:14 87° NW
Meteor 1-26 Rocket 4.5 23:38:10 10° N 23:43:29 60° ENE 23:43:29 60° ENE
Cosmos 1371 Rocket 4.2 23:46:20 70° N 23:46:20 70° N 23:51:07 10° NNE
Cosmos 1447 Rocket 4.4 23:39:38 10° N 23:45:51 69° E 23:45:56 69° E
CENTAUR R/B 4.0 23:38:49 10° NNW 23:46:47 46° NE 23:52:09 24° ESE
Cosmos 1153 Rocket 4.4 23:50:42 72° E 23:50:42 72° E 23:56:57 10° NNE
